Aérodrome :
LOGIN :

S'inscrire | Disclaimer

   EN    FR    IT 

 










Légende :    VFR   VFR Marginal   IFR   IFR Intensif   IFR Très Intensif
Visi : 
Plafond : 
>= 8 km
>= 3000ft
5 à 8 km
1000 à 3000 ft
1500m à 5 km
500 à 1000 ft
800 à 1500m
200 à 500 ft
< 800m
< 200 ft
Symboles :   Orages  Brouillard  Fortes neiges  Fortes précipitations  Vent > 20 kt
SIGMETs :   Divers  Orages  Givrage  Turbulence  Onde Orograph.  Cendres Volcan.







- Altitude de l'aérodrome : 463 ft
- Code IATA : QAS


DAOI - Chlef Int.

DERNIER METAR :
  • 290300Z 24008KT 8000 SCT026 SCT230 21/18 Q1014

METARs EXPIRÉS :
  • 290200Z 26010KT 8000 NSC 20/17 Q1015
  • 290100Z 24008KT 8000 NSC 20/17 Q1015

TAF TAF DAOI
Valide du 29 à 00h jusqu'au 30 à 00h UTC


282300Z 2900/2924 VRB02KT CAVOK
PROB30
TEMPO 2906/2915 -TSRA SCT026 FEW030CB BKN233
BECMG 2908/2911 26012KT
BECMG 2918/2921 VRB02KT
Pas de NOTAMs connus pour ce terrain.



MET'MAP, la Météo Aéronautique d'un coup d'oeil ! - Copyright ORBIFLY Décembre 2007 - Disclaimer

ORBIFLY MET'MAP TEAM :

Programmation & Développement : Alexandra Zaïnal
Conception & Développement : Baudouin d'Aumeries
Co-Programmation & Développement : Marc-Olivier Méhu
Soutien technique & logistique : Manuel Goepfert

Contact : metmap@orbifly.com




SOURCES & CREDITS :

   NOAA